This is the latest recevied weather packets stored in our database for station/object N5ZP. If no packets are shown the sender has not sent any weather packets the latest 10 day(s).
| Time | Temp. | Humidity | Pressure | Rain* | Wind** | Luminosity | Snow |
|---|---|---|---|---|---|---|---|
| 1787784006 | 37.78° C | 38% | 1009.7 hPa | 0 mm | - | 113 W/m² | - |
| 1787783703 | 37.78° C | 39% | 1009.6 hPa | 0 mm | - | 114 W/m² | - |
| 1787783401 | 37.78° C | 39% | 1009.6 hPa | 0 mm | - | 117 W/m² | - |
| 1787783098 | 38.33° C | 38% | 1009.8 hPa | 0 mm | - | 123 W/m² | - |
| 1787782797 | 38.89° C | 38% | 1009.9 hPa | 0 mm | - | 120 W/m² | - |
| 1787782493 | 39.44° C | 36% | 1010.1 hPa | 0 mm | - | 90 W/m² | - |
| 1787782192 | 40.56° C | 34% | 1010 hPa | 0 mm | - | 81 W/m² | - |
| 1787781889 | 41.11° C | 34% | 1010.2 hPa | 0 mm | - | 118 W/m² | - |
| 1787781587 | 41.11° C | 35% | 1010.3 hPa | 0 mm | - | 350 W/m² | - |
| 1787781286 | 40.56° C | 34% | 1010.4 hPa | 0 mm | - | 361 W/m² | - |
| 1787780984 | 40° C | 34% | 1010.3 hPa | 0 mm | - | 265 W/m² | - |
| 1787780679 | 40° C | 35% | 1010.4 hPa | 0 mm | - | 340 W/m² | - |
| 1787780373 | 39.44° C | 36% | 1010.6 hPa | 0 mm | - | 130 W/m² | - |
| 1787780071 | 38.89° C | 37% | 1010.6 hPa | 0 mm | - | 190 W/m² | - |
| 1787779771 | 38.89° C | 37% | 1010.5 hPa | 0 mm | - | 169 W/m² | - |
| 1787779470 | 38.89° C | 36% | 1010.9 hPa | 0 mm | - | 176 W/m² | - |
| 1787779170 | 38.89° C | 37% | 1010.9 hPa | 0 mm | - | 160 W/m² | - |
| 1787778865 | 37.78° C | 39% | 1010.7 hPa | 0 mm | - | 562 W/m² | - |
| 1787778561 | 37.78° C | 40% | 1010.8 hPa | 0 mm | - | 156 W/m² | - |
| 1787778257 | 37.78° C | 40% | 1011.1 hPa | 0 mm | - | 153 W/m² | - |
| 1787777956 | 38.33° C | 40% | 1011.3 hPa | 0 mm | - | 148 W/m² | - |
| 1787777652 | 38.89° C | 38% | 1010.9 hPa | 0 mm | - | 117 W/m² | - |
| 1787777348 | 39.44° C | 37% | 1011.2 hPa | 0 mm | - | 100 W/m² | - |
| 1787777047 | 39.44° C | 37% | 1011.2 hPa | 0 mm | - | 537 W/m² | - |
| 1787776746 | 38.89° C | 38% | 1011.4 hPa | 0 mm | - | 539 W/m² | - |
* Rain latest hour (hover to see other rain measurements)
** Current wind speed in m/s (hover to see current wind gust speed)